| time (UTC) | temp C | wind direction | speed KPH | gust KPH | rain 1hr cm | rain 24hr cm | rain mn cm | humidity % | barometer mb |
| 20260505083012 | 7 | 145 | 0.0 | 0.0 | 0.00 | 0.00 | 0.00 | 85 | 1012.8 |
| 20260505081531 | 7 | 145 | 0.0 | 0.0 | 0.00 | 0.00 | 0.00 | 83 | 1012.8 |
| 20260505080043 | 8 | 145 | 0.0 | 0.0 | 0.00 | 0.00 | 0.00 | 83 | 1012.8 |
| 20260505074552 | 8 | 145 | 0.0 | 0.0 | 0.00 | 0.00 | 0.00 | 83 | 1012.6 |
| 20260505073059 | 8 | 145 | 0.0 | 0.0 | 0.00 | 0.00 | 0.00 | 82 | 1012.6 |
| 20260505071555 | 8 | 145 | 0.0 | 0.0 | 0.00 | 0.00 | 0.00 | 82 | 1012.7 |
| 20260505070053 | 8 | 145 | 0.0 | 0.0 | 0.00 | 0.00 | 0.00 | 82 | 1012.5 |
| 20260505064637 | 8 | 145 | 0.0 | 0.0 | 0.00 | 0.00 | 0.00 | 81 | 1012.8 |
| 20260505063101 | 9 | 145 | 0.0 | 0.0 | 0.00 | 0.00 | 0.00 | 80 | 1012.8 |
| 20260505061601 | 10 | 146 | 0.0 | 0.0 | 0.00 | 0.00 | 0.00 | 78 | 1012.9 |
| 20260505060059 | 10 | 146 | 0.0 | 0.0 | 0.00 | 0.00 | 0.00 | 77 | 1012.9 |
| 20260505054515 | 11 | 146 | 0.0 | 0.0 | 0.00 | 0.00 | 0.00 | 76 | 1013.0 |
| 20260505053023 | 11 | 146 | 0.0 | 0.0 | 0.00 | 0.00 | 0.00 | 74 | 1013.0 |
| 20260505051542 | 11 | 146 | 0.0 | 0.0 | 0.00 | 0.00 | 0.00 | 73 | 1013.1 |
| 20260505041534 | 11 | 145 | 0.0 | 3.2 | 0.00 | 0.00 | 0.00 | 74 | 1013.0 |
| 20260505040042 | 11 | 145 | 0.0 | 0.0 | 0.00 | 0.00 | 0.00 | 76 | 1013.1 |
| 20260505034610 | 11 | 145 | 0.0 | 0.0 | 0.00 | 0.00 | 0.00 | 75 | 1013.1 |
| 20260505033002 | 12 | 145 | 0.0 | 0.0 | 0.00 | 0.00 | 0.00 | 72 | 1013.5 |
| 20260505031515 | 12 | 145 | 0.0 | 0.0 | 0.00 | 0.00 | 0.00 | 72 | 1013.7 |
| 20260505030049 | 13 | 145 | 0.0 | 0.0 | 0.00 | 0.00 | 0.00 | 69 | 1013.7 |
| 20260505024543 | 13 | 145 | 0.0 | 0.0 | 0.00 | 0.00 | 0.00 | 68 | 1013.7 |
| 20260505023051 | 14 | 145 | 0.0 | 0.0 | 0.00 | 0.00 | 0.00 | 66 | 1013.6 |
| 20260505021547 | 15 | 145 | 0.0 | 0.0 | 0.00 | 0.00 | 0.00 | 64 | 1013.5 |
| 20260505020103 | 15 | 145 | 0.0 | 0.0 | 0.00 | 0.00 | 0.00 | 62 | 1013.4 |
| 20260505014557 | 16 | 145 | 0.0 | 0.0 | 0.00 | 0.00 | 0.00 | 60 | 1013.2 |
| 20260505013017 | 16 | 145 | 0.0 | 6.4 | 0.00 | 0.00 | 0.00 | 57 | 1013.2 |
| 20260505011525 | 17 | 250 | 0.0 | 6.4 | 0.00 | 0.00 | 0.00 | 56 | 1012.9 |
| 20260505010105 | 17 | 186 | 1.6 | 8.0 | 0.00 | 0.00 | 0.00 | 55 | 1012.7 |
| 20260505004617 | 17 | 192 | 3.2 | 16.1 | 0.00 | 0.00 | 0.00 | 54 | 1012.6 |
| 20260505003009 | 17 | 178 | 3.2 | 14.5 | 0.00 | 0.00 | 0.00 | 53 | 1012.3 |
| 20260505001543 | 18 | 190 | 1.6 | 12.9 | 0.00 | 0.00 | 0.00 | 52 | 1012.2 |
| 20260505000110 | 18 | 184 | 1.6 | 11.3 | 0.00 | 0.00 | 0.00 | 50 | 1012.2 |
| 20260504234508 | 19 | 211 | 3.2 | 14.5 | 0.00 | 0.00 | 0.00 | 49 | 1012.2 |
| 20260504233047 | 20 | 151 | 4.8 | 12.9 | 0.00 | 0.00 | 0.00 | 47 | 1011.8 |
| 20260504231619 | 20 | 171 | 8.0 | 17.7 | 0.00 | 0.00 | 0.00 | 46 | 1011.7 |
| 20260504230058 | 21 | 190 | 6.4 | 11.3 | 0.00 | 0.00 | 0.00 | 44 | 1011.5 |
| 20260504224613 | 21 | 168 | 1.6 | 9.7 | 0.00 | 0.00 | 0.00 | 42 | 1011.5 |
| 20260504223009 | 22 | 140 | 0.0 | 6.4 | 0.00 | 0.00 | 0.00 | 41 | 1011.5 |
| 20260504221535 | 22 | 227 | 0.0 | 6.4 | 0.00 | 0.00 | 0.00 | 42 | 1011.5 |
| 20260504220041 | 22 | 82 | 0.0 | 3.2 | 0.00 | 0.00 | 0.00 | 41 | 1011.5 |
| 20260504214551 | 22 | 82 | 0.0 | 6.4 | 0.00 | 0.00 | 0.00 | 40 | 1011.7 |
| 20260504213100 | 22 | 126 | 0.0 | 6.4 | 0.00 | 0.00 | 0.00 | 38 | 1011.6 |
| 20260504211513 | 22 | 96 | 0.0 | 6.4 | 0.00 | 0.00 | 0.00 | 37 | 1011.8 |
| 20260504210014 | 22 | 78 | 0.0 | 8.0 | 0.00 | 0.00 | 0.00 | 36 | 1011.9 |
| 20260504204548 | 23 | 92 | 0.0 | 8.0 | 0.00 | 0.00 | 0.00 | 34 | 1011.9 |
| 20260504203051 | 23 | 80 | 1.6 | 8.0 | 0.00 | 0.00 | 0.00 | 35 | 1012.1 |
| 20260504201547 | 22 | 72 | 0.0 | 11.3 | 0.00 | 0.00 | 0.00 | 34 | 1012.1 |
| 20260504200109 | 23 | 119 | 1.6 | 4.8 | 0.00 | 0.00 | 0.00 | 36 | 1012.4 |
| 20260504194525 | 22 | 84 | 0.0 | 8.0 | 0.00 | 0.00 | 0.00 | 38 | 1012.7 |
| 20260504193100 | 22 | 65 | 1.6 | 6.4 | 0.00 | 0.00 | 0.00 | 39 | 1013.0 |
| 20260504191507 | 22 | 74 | 3.2 | 8.0 | 0.00 | 0.00 | 0.00 | 36 | 1013.1 |
| 20260504190039 | 22 | 175 | 3.2 | 9.7 | 0.00 | 0.00 | 0.00 | 35 | 1013.4 |
| 20260504184601 | 22 | 154 | 0.0 | 6.4 | 0.00 | 0.00 | 0.00 | 38 | 1013.6 |
| 20260504183005 | 22 | 216 | 1.6 | 9.7 | 0.00 | 0.00 | 0.00 | 35 | 1013.7 |
| 20260504181540 | 22 | 18 | 1.6 | 8.0 | 0.00 | 0.00 | 0.00 | 36 | 1013.8 |
| 20260504180056 | 22 | 17 | 0.0 | 6.4 | 0.00 | 0.00 | 0.00 | 34 | 1014.2 |
| 20260504174558 | 22 | 17 | 0.0 | 1.6 | 0.00 | 0.00 | 0.00 | 34 | 1014.4 |
| 20260504173005 | 22 | 29 | 0.0 | 4.8 | 0.00 | 0.00 | 0.00 | 39 | 1014.5 |
| 20260504171512 | 20 | 214 | 0.0 | 8.0 | 0.00 | 0.00 | 0.00 | 38 | 1014.9 |